This is the latest recevied weather packets stored in our database for station/object F4ELU-13. If no packets are shown the sender has not sent any weather packets the latest 10 day(s).
| Time | Temp. | Humidity | Pressure | Rain* | Wind** | Luminosity | Snow |
|---|---|---|---|---|---|---|---|
| 1778097603 | 10.56° C | 99% | 1011.4 hPa | 0 mm | - | - | - |
| 1778097243 | 10.56° C | 99% | 1011.3 hPa | 0 mm | - | - | - |
| 1778096703 | 10.56° C | 99% | 1011.3 hPa | 0 mm | - | - | - |
| 1778096163 | 10.56° C | 98% | 1011.2 hPa | 0 mm | - | - | - |
| 1778095623 | 11.11° C | 98% | 1011.2 hPa | 0 mm | - | - | - |
| 1778095083 | 11.11° C | 97% | 1011 hPa | 0 mm | - | - | - |
| 1778094543 | 11.11° C | 97% | 1010.9 hPa | 0 mm | - | - | - |
| 1778094003 | 11.67° C | 96% | 1010.9 hPa | 0 mm | - | - | - |
| 1778093643 | 11.67° C | 95% | 1011 hPa | 0 mm | - | - | - |
| 1778093104 | 11.67° C | 95% | 1010.6 hPa | 0 mm | - | - | - |
| 1778092563 | 11.67° C | 95% | 1010.6 hPa | 0 mm | - | - | - |
| 1778092024 | 11.67° C | 94% | 1010.5 hPa | 0 mm | - | - | - |
| 1778091484 | 12.22° C | 93% | 1010.3 hPa | 0 mm | - | - | - |
| 1778090943 | 12.78° C | 94% | 1010.4 hPa | 0 mm | - | - | - |
| 1778090403 | 12.78° C | 94% | 1010.2 hPa | 0 mm | - | - | - |
| 1778090043 | 12.78° C | 91% | 1010.1 hPa | 0 mm | - | - | - |
| 1778089503 | 13.33° C | 94% | 1010.1 hPa | 0 mm | - | - | - |
| 1778088963 | 12.78° C | 95% | 1010 hPa | 0 mm | - | - | - |
| 1778088423 | 12.22° C | 97% | 1010 hPa | 0 mm | - | - | - |
| 1778087883 | 12.22° C | 98% | 1009.9 hPa | 0 mm | - | - | - |
| 1778087343 | 12.22° C | 98% | 1009.9 hPa | 0 mm | - | - | - |
| 1778086803 | 11.67° C | 98% | 1009.8 hPa | 0 mm | - | - | - |
| 1778086443 | 12.22° C | 98% | 1009.7 hPa | 0 mm | - | - | - |
| 1778085903 | 11.67° C | 98% | 1009.6 hPa | 0 mm | - | - | - |
| 1778085363 | 11.67° C | 99% | 1009.8 hPa | 0 mm | - | - | - |
* Rain latest hour (hover to see other rain measurements)
** Current wind speed in m/s (hover to see current wind gust speed)